GLO2810 CYQX-BIKF

Flight info

Callsign GLO2810
Flight time N/A
Altitude 33000
Route UMESI/M075F330 DCT 53N050W 58N040W 62N030W DCT ELREX DCT ELDIS ELDIS4K
Aircraft B738/M-SDE2E3FGHIRWXY/LB1

Departure

Time 2026-04-17 17:06
Airport Gander International Airport (CYQX)

Arrival

Time N/A
Airport Keflavik International Airport (BIKF)
Time Latitude Longitude Altitude Speed Heading
2026-04-17 16:27 48.94756 -54.57573 457 ft 0 kts 188°
2026-04-17 16:45 48.94757 -54.57573 457 ft 0 kts 188°
2026-04-17 16:58 48.94765 -54.57571 457 ft 0 kts 187°
2026-04-17 16:59 48.94775 -54.57569 455 ft 2 kts 190°
2026-04-17 16:59 48.94791 -54.57564 455 ft 2 kts 192°
2026-04-17 16:59 48.94807 -54.57558 457 ft 2 kts 194°
2026-04-17 16:59 48.94822 -54.57551 456 ft 2 kts 198°
2026-04-17 17:00 48.94836 -54.57545 457 ft 1 kts 143°
2026-04-17 17:02 48.94823 -54.57529 457 ft 8 kts 142°
2026-04-17 17:02 48.94786 -54.57408 455 ft 16 kts 109°
2026-04-17 17:02 48.94761 -54.57297 455 ft 17 kts 109°
2026-04-17 17:02 48.94726 -54.57133 452 ft 13 kts 108°
2026-04-17 17:03 48.94729 -54.57020 452 ft 11 kts 54°
2026-04-17 17:03 48.94818 -54.56957 452 ft 11 kts 19°
2026-04-17 17:03 48.94864 -54.56933 453 ft 10 kts 19°
2026-04-17 17:03 48.94895 -54.56917 453 ft 0 kts 18°
2026-04-17 17:04 48.94922 -54.56902 453 ft 10 kts 27°
2026-04-17 17:04 48.94929 -54.56733 448 ft 24 kts 107°
2026-04-17 17:04 48.94869 -54.56455 439 ft 30 kts 108°
2026-04-17 17:05 48.94808 -54.56162 442 ft 22 kts 105°
2026-04-17 17:05 48.94806 -54.56062 427 ft 2 kts 80°
2026-04-17 17:05 48.94788 -54.56018 430 ft 6 kts 160°
2026-04-17 17:05 48.94661 -54.56041 436 ft 48 kts 190°
2026-04-17 17:06 48.94084 -54.56209 451 ft 121 kts 191°
2026-04-17 17:06 48.93084 -54.56506 684 ft 160 kts 192°
2026-04-17 17:06 48.91987 -54.56713 1563 ft 167 kts 179°
2026-04-17 17:06 48.90875 -54.55891 2292 ft 190 kts 136°
2026-04-17 17:07 48.90147 -54.54011 2671 ft 226 kts 107°
2026-04-17 17:07 48.90002 -54.51519 2815 ft 248 kts 80°
2026-04-17 17:07 48.90567 -54.49063 3348 ft 248 kts 53°
2026-04-17 17:07 48.91782 -54.47126 3540 ft 266 kts 32°
2026-04-17 17:08 48.93360 -54.45486 3994 ft 280 kts 31°
2026-04-17 17:08 48.94952 -54.43818 4855 ft 278 kts 28°
2026-04-17 17:08 48.96659 -54.42422 5763 ft 276 kts 22°
2026-04-17 17:08 48.98376 -54.41139 6420 ft 281 kts 22°
2026-04-17 17:09 49.00141 -54.39783 7028 ft 288 kts 23°
2026-04-17 17:09 49.01929 -54.38336 7778 ft 291 kts 24°
2026-04-17 17:09 49.03710 -54.36829 8536 ft 294 kts 24°
2026-04-17 17:09 49.05502 -54.35261 9230 ft 299 kts 24°
2026-04-17 17:10 49.07313 -54.33639 9878 ft 303 kts 25°
2026-04-17 17:10 49.09139 -54.31974 10424 ft 311 kts 25°
2026-04-17 17:10 49.11028 -54.30234 10851 ft 321 kts 25°
2026-04-17 17:10 49.12945 -54.28446 11494 ft 324 kts 25°
2026-04-17 17:11 49.14873 -54.26634 12168 ft 327 kts 26°
2026-04-17 17:11 49.16793 -54.24821 12816 ft 330 kts 26°
2026-04-17 17:11 49.18777 -54.22941 13482 ft 333 kts 26°
2026-04-17 17:11 49.20750 -54.21069 14036 ft 336 kts 25°
2026-04-17 17:12 49.22737 -54.19182 14543 ft 342 kts 25°
2026-04-17 17:12 49.24772 -54.17247 15076 ft 346 kts 25°
2026-04-17 17:12 49.26825 -54.15290 15649 ft 349 kts 25°
2026-04-17 17:12 49.28904 -54.13306 16198 ft 353 kts 25°
2026-04-17 17:13 49.31001 -54.11302 16731 ft 357 kts 25°
2026-04-17 17:13 49.33133 -54.09264 17271 ft 362 kts 25°
2026-04-17 17:13 49.35249 -54.07238 17801 ft 365 kts 24°
2026-04-17 17:13 49.37420 -54.05157 18292 ft 369 kts 24°
2026-04-17 17:14 49.39607 -54.03058 18768 ft 372 kts 24°
2026-04-17 17:14 49.41815 -54.00938 19242 ft 376 kts 24°
2026-04-17 17:14 49.44054 -53.98786 19679 ft 381 kts 24°
2026-04-17 17:15 49.48583 -53.94421 20629 ft 387 kts 24°
2026-04-17 17:15 49.50872 -53.92213 21080 ft 390 kts 24°
2026-04-17 17:15 49.53155 -53.90007 21521 ft 393 kts 24°
2026-04-17 17:15 49.55483 -53.87756 21966 ft 397 kts 24°
2026-04-17 17:16 49.57835 -53.85480 22415 ft 400 kts 24°
2026-04-17 17:16 49.60195 -53.83191 22882 ft 402 kts 24°
2026-04-17 17:16 49.62570 -53.80886 23338 ft 405 kts 24°
2026-04-17 17:16 49.64972 -53.78555 23645 ft 410 kts 24°
2026-04-17 17:17 49.67393 -53.76200 23995 ft 413 kts 24°
2026-04-17 17:17 49.69835 -53.73822 24349 ft 415 kts 24°
2026-04-17 17:17 49.72291 -53.71426 24690 ft 418 kts 23°
2026-04-17 17:17 49.74734 -53.69042 25025 ft 421 kts 23°
2026-04-17 17:18 49.77227 -53.66606 25352 ft 425 kts 23°
2026-04-17 17:18 49.79727 -53.64160 25674 ft 428 kts 23°
2026-04-17 17:18 49.82255 -53.61683 26009 ft 431 kts 23°
2026-04-17 17:18 49.84804 -53.59183 26301 ft 435 kts 23°
2026-04-17 17:19 49.87368 -53.56666 26606 ft 438 kts 23°
2026-04-17 17:19 49.89945 -53.54130 26927 ft 440 kts 23°
2026-04-17 17:19 49.92537 -53.51577 27236 ft 443 kts 23°
2026-04-17 17:19 49.95145 -53.49005 27525 ft 446 kts 23°
2026-04-17 17:20 49.97740 -53.46443 27861 ft 449 kts 23°
2026-04-17 17:20 50.00374 -53.43840 28109 ft 452 kts 23°
2026-04-17 17:20 50.03038 -53.41204 28405 ft 455 kts 23°
2026-04-17 17:20 50.05715 -53.38549 28718 ft 457 kts 22°
2026-04-17 17:21 50.08405 -53.35878 29009 ft 460 kts 22°
2026-04-17 17:21 50.11117 -53.33182 29289 ft 463 kts 22°
2026-04-17 17:21 50.13843 -53.30468 29559 ft 465 kts 22°
2026-04-17 17:21 50.16578 -53.27743 29811 ft 468 kts 22°
2026-04-17 17:22 50.19319 -53.25006 30049 ft 470 kts 22°
2026-04-17 17:22 50.22081 -53.22244 30312 ft 471 kts 22°
2026-04-17 17:22 50.24842 -53.19478 30596 ft 472 kts 23°
2026-04-17 17:22 50.27579 -53.16734 30833 ft 473 kts 23°
2026-04-17 17:23 50.30355 -53.13947 31071 ft 475 kts 23°
2026-04-17 17:23 50.33138 -53.11150 31300 ft 476 kts 23°
2026-04-17 17:23 50.35928 -53.08342 31534 ft 477 kts 23°
2026-04-17 17:23 50.38725 -53.05522 31746 ft 479 kts 23°
2026-04-17 17:24 50.41529 -53.02692 31971 ft 480 kts 23°
2026-04-17 17:24 50.44297 -52.99895 32227 ft 481 kts 23°
2026-04-17 17:24 50.47075 -52.97082 32437 ft 482 kts 24°
2026-04-17 17:24 50.49890 -52.94228 32638 ft 483 kts 24°
2026-04-17 17:25 50.52727 -52.91348 32726 ft 485 kts 24°
2026-04-17 17:25 50.58354 -52.85614 32718 ft 478 kts 24°
2026-04-17 17:26 50.63877 -52.79974 32724 ft 474 kts 24°
2026-04-17 17:26 50.69419 -52.74310 32720 ft 474 kts 24°
2026-04-17 17:27 50.74946 -52.68640 32720 ft 474 kts 24°
2026-04-17 17:27 50.80466 -52.62961 32715 ft 473 kts 24°
2026-04-17 17:28 50.85912 -52.57033 32752 ft 479 kts 29°
2026-04-17 17:28 50.91140 -52.50409 32725 ft 482 kts 31°
2026-04-17 17:29 50.96334 -52.43633 32714 ft 482 kts 31°
2026-04-17 17:29 51.01508 -52.36948 32714 ft 482 kts 31°
2026-04-17 17:30 51.06732 -52.30253 32731 ft 482 kts 31°
2026-04-17 17:30 51.11976 -52.23540 32714 ft 483 kts 31°
2026-04-17 17:31 51.17195 -52.16837 32717 ft 483 kts 31°
2026-04-17 17:31 51.22428 -52.10092 32712 ft 484 kts 31°
2026-04-17 17:32 51.27647 -52.03339 32774 ft 484 kts 31°
2026-04-17 17:32 51.32785 -51.96671 32708 ft 484 kts 31°
2026-04-17 17:33 51.38008 -51.89878 32702 ft 482 kts 31°
2026-04-17 17:33 51.43201 -51.83103 32699 ft 480 kts 31°
2026-04-17 17:34 51.48366 -51.76344 32715 ft 478 kts 32°
2026-04-17 17:34 51.53482 -51.69629 32705 ft 477 kts 32°
2026-04-17 17:35 51.58609 -51.62878 32701 ft 476 kts 32°
2026-04-17 17:35 51.63732 -51.56113 32750 ft 475 kts 32°
2026-04-17 17:36 51.68835 -51.49351 33479 ft 466 kts 33°
2026-04-17 17:36 51.71292 -51.46080 33889 ft 462 kts 33°
2026-04-17 17:36 51.73779 -51.42773 33972 ft 466 kts 33°
2026-04-17 17:37 51.78826 -51.36065 34146 ft 472 kts 33°
2026-04-17 17:37 51.81355 -51.32692 34247 ft 474 kts 33°
2026-04-17 17:37 51.83918 -51.29269 34276 ft 479 kts 33°
2026-04-17 17:38 51.89104 -51.22323 34343 ft 488 kts 33°
2026-04-17 17:38 51.94383 -51.15225 34397 ft 496 kts 33°
2026-04-17 17:39 51.99707 -51.08042 34452 ft 504 kts 34°
2026-04-17 17:39 52.05125 -51.00703 34686 ft 507 kts 34°
2026-04-17 17:39 52.07742 -50.97148 34829 ft 508 kts 34°
2026-04-17 17:40 52.10461 -50.93451 34961 ft 509 kts 34°
2026-04-17 17:40 52.13181 -50.89746 35075 ft 510 kts 34°
2026-04-17 17:40 52.15902 -50.86037 35180 ft 511 kts 34°
2026-04-17 17:40 52.18634 -50.82306 35291 ft 512 kts 34°
2026-04-17 17:41 52.21363 -50.78573 35398 ft 514 kts 34°
2026-04-17 17:41 52.24111 -50.74807 35575 ft 514 kts 34°
2026-04-17 17:41 52.26851 -50.71046 35716 ft 514 kts 34°
2026-04-17 17:41 52.29553 -50.67329 35874 ft 514 kts 34°
2026-04-17 17:42 52.32290 -50.63559 36042 ft 513 kts 34°
2026-04-17 17:42 52.35024 -50.59786 36176 ft 513 kts 34°
2026-04-17 17:42 52.37754 -50.56015 36295 ft 514 kts 34°
2026-04-17 17:42 52.40486 -50.52233 36454 ft 513 kts 34°
2026-04-17 17:43 52.43209 -50.48458 36581 ft 513 kts 34°
2026-04-17 17:43 52.45933 -50.44675 36756 ft 512 kts 34°
2026-04-17 17:43 52.48620 -50.40937 36902 ft 512 kts 34°
2026-04-17 17:43 52.51367 -50.37110 37028 ft 512 kts 34°
2026-04-17 17:44 52.54044 -50.33373 37136 ft 512 kts 34°
2026-04-17 17:44 52.56757 -50.29581 37260 ft 512 kts 34°
2026-04-17 17:44 52.59478 -50.25770 37391 ft 511 kts 34°
2026-04-17 17:44 52.62189 -50.21968 37507 ft 511 kts 34°
2026-04-17 17:45 52.64894 -50.18167 37663 ft 511 kts 34°
2026-04-17 17:45 52.67579 -50.14386 37826 ft 509 kts 34°
2026-04-17 17:45 52.70245 -50.10626 37961 ft 508 kts 34°
2026-04-17 17:46 52.75623 -50.03027 38097 ft 509 kts 34°
2026-04-17 17:46 52.80910 -49.95530 38307 ft 508 kts 34°
2026-04-17 17:46 52.83595 -49.91712 38424 ft 508 kts 34°
2026-04-17 17:47 52.86269 -49.87904 38529 ft 506 kts 34°
2026-04-17 17:47 52.88930 -49.84106 38668 ft 504 kts 34°
2026-04-17 17:47 52.91583 -49.80313 38714 ft 504 kts 34°
2026-04-17 17:48 52.96874 -49.72733 38721 ft 501 kts 34°
2026-04-17 17:48 53.02095 -49.65227 38727 ft 498 kts 34°
2026-04-17 17:49 53.07310 -49.57706 38736 ft 495 kts 35°
2026-04-17 17:49 53.12510 -49.50184 38732 ft 493 kts 35°
2026-04-17 17:50 53.17684 -49.42675 38741 ft 492 kts 35°
2026-04-17 17:50 53.22844 -49.35162 38753 ft 492 kts 35°
2026-04-17 17:51 53.27979 -49.27660 38786 ft 494 kts 36°
2026-04-17 17:51 53.33161 -49.20051 38750 ft 496 kts 36°
2026-04-17 17:52 53.37477 -49.13709 38756 ft 497 kts 36°
2026-04-17 17:52 53.42675 -49.06045 38752 ft 498 kts 36°
2026-04-17 17:53 53.47797 -48.98463 38756 ft 499 kts 36°
2026-04-17 17:53 53.53007 -48.90724 38752 ft 500 kts 36°
2026-04-17 17:54 53.58225 -48.82947 38750 ft 501 kts 37°
2026-04-17 17:54 53.63434 -48.75155 38757 ft 501 kts 37°
2026-04-17 17:55 53.68618 -48.67375 38762 ft 501 kts 37°
2026-04-17 17:55 53.73824 -48.59534 38764 ft 501 kts 37°
2026-04-17 17:56 53.79019 -48.51683 38759 ft 500 kts 37°
2026-04-17 17:56 53.84193 -48.43837 38756 ft 499 kts 37°
2026-04-17 17:57 53.89352 -48.35986 38777 ft 498 kts 37°
2026-04-17 17:57 53.94500 -48.28126 38774 ft 497 kts 37°
2026-04-17 17:58 53.99605 -48.20304 38773 ft 496 kts 37°
2026-04-17 17:58 54.04718 -48.12443 38780 ft 496 kts 38°
2026-04-17 17:59 54.09836 -48.04547 38786 ft 495 kts 38°
2026-04-17 17:59 54.14853 -47.96780 38786 ft 495 kts 38°
2026-04-17 18:00 54.19948 -47.88866 38785 ft 495 kts 38°
2026-04-17 18:00 54.25004 -47.80983 38812 ft 495 kts 38°
2026-04-17 18:01 54.30086 -47.73035 38805 ft 496 kts 38°
2026-04-17 18:01 54.35177 -47.65043 38803 ft 497 kts 38°
2026-04-17 18:02 54.40278 -47.57008 38808 ft 498 kts 38°
2026-04-17 18:02 54.45377 -47.48946 38808 ft 499 kts 38°
2026-04-17 18:03 54.50493 -47.40830 38819 ft 500 kts 39°
2026-04-17 18:03 54.55603 -47.32693 38819 ft 501 kts 39°
2026-04-17 18:04 54.60722 -47.24513 38817 ft 501 kts 39°
2026-04-17 18:04 54.65808 -47.16356 38815 ft 502 kts 39°
2026-04-17 18:05 54.70931 -47.08110 38830 ft 503 kts 39°
2026-04-17 18:05 54.76018 -46.99892 38831 ft 503 kts 39°
2026-04-17 18:06 54.81080 -46.91686 38823 ft 503 kts 39°
2026-04-17 18:06 54.86182 -46.83384 38832 ft 502 kts 39°
2026-04-17 18:07 54.91237 -46.75131 38835 ft 502 kts 39°
2026-04-17 18:07 54.96350 -46.66750 38836 ft 501 kts 40°
2026-04-17 18:08 55.01373 -46.58487 38836 ft 500 kts 40°
2026-04-17 18:08 55.06422 -46.50153 38835 ft 499 kts 40°
2026-04-17 18:09 55.11464 -46.41799 38840 ft 499 kts 40°
2026-04-17 18:09 55.16496 -46.33430 38836 ft 498 kts 40°
2026-04-17 18:10 55.21513 -46.25057 38837 ft 498 kts 40°
2026-04-17 18:10 55.26524 -46.16663 38837 ft 498 kts 40°
2026-04-17 18:11 55.31498 -46.08300 38848 ft 498 kts 40°
2026-04-17 18:11 55.36477 -45.99899 38846 ft 500 kts 40°
2026-04-17 18:12 55.41394 -45.91570 38854 ft 500 kts 40°
2026-04-17 18:12 55.46412 -45.83041 38842 ft 500 kts 40°
2026-04-17 18:13 55.51418 -45.74498 38847 ft 501 kts 41°
2026-04-17 18:13 55.56392 -45.65980 38845 ft 501 kts 41°
2026-04-17 18:14 55.61389 -45.57389 38844 ft 501 kts 41°
2026-04-17 18:14 55.66398 -45.48746 38846 ft 501 kts 41°
2026-04-17 18:15 55.71381 -45.40115 38853 ft 501 kts 41°
2026-04-17 18:15 55.76368 -45.31444 38846 ft 501 kts 41°
2026-04-17 18:16 55.81344 -45.22761 38846 ft 501 kts 41°
2026-04-17 18:16 55.86284 -45.14107 38846 ft 501 kts 41°
2026-04-17 18:17 55.91248 -45.05378 38853 ft 501 kts 41°
2026-04-17 18:17 55.98606 -44.92377 38847 ft 500 kts 41°
2026-04-17 18:18 56.03538 -44.83623 38850 ft 500 kts 41°
2026-04-17 18:18 56.08438 -44.74892 38845 ft 500 kts 42°
2026-04-17 18:19 56.13356 -44.66095 38846 ft 499 kts 42°
2026-04-17 18:19 56.18275 -44.57262 38840 ft 499 kts 42°
2026-04-17 18:20 56.23175 -44.48429 38839 ft 499 kts 42°
2026-04-17 18:20 56.28074 -44.39564 38838 ft 499 kts 42°
2026-04-17 18:21 56.32936 -44.30734 38842 ft 499 kts 42°
2026-04-17 18:21 56.37822 -44.21825 38837 ft 499 kts 42°
2026-04-17 18:22 56.42705 -44.12886 38836 ft 499 kts 43°
2026-04-17 18:22 56.47571 -44.03944 38835 ft 499 kts 43°
2026-04-17 18:23 56.52363 -43.95103 38840 ft 499 kts 43°
2026-04-17 18:23 56.57215 -43.86118 38832 ft 499 kts 43°
2026-04-17 18:24 56.62035 -43.77156 38833 ft 499 kts 43°
2026-04-17 18:24 56.66882 -43.68110 38833 ft 499 kts 43°
2026-04-17 18:25 56.71722 -43.59042 38844 ft 499 kts 43°
2026-04-17 18:25 56.76512 -43.50031 38832 ft 499 kts 43°
2026-04-17 18:26 56.81376 -43.40846 38828 ft 499 kts 43°
2026-04-17 18:26 56.86166 -43.31762 38826 ft 499 kts 43°
2026-04-17 18:27 56.90978 -43.22603 38827 ft 499 kts 44°
2026-04-17 18:27 56.95779 -43.13429 38828 ft 499 kts 44°
2026-04-17 18:28 57.00561 -43.04252 38813 ft 499 kts 44°
2026-04-17 18:28 57.05251 -42.95219 38821 ft 499 kts 44°
2026-04-17 18:29 57.10029 -42.85979 38814 ft 498 kts 44°
2026-04-17 18:29 57.14804 -42.76707 38819 ft 498 kts 44°
2026-04-17 18:30 57.19573 -42.67408 38809 ft 498 kts 44°
2026-04-17 18:30 57.24329 -42.58099 38809 ft 498 kts 44°
2026-04-17 18:31 57.29057 -42.48808 38807 ft 498 kts 44°
2026-04-17 18:31 57.33803 -42.39443 38819 ft 498 kts 44°
2026-04-17 18:32 57.38525 -42.30088 38804 ft 498 kts 45°